This is the latest recevied weather packets stored in our database for station/object KJ5IIV. If no packets are shown the sender has not sent any weather packets the latest 10 day(s).
| Time | Temp. | Humidity | Pressure | Rain* | Wind** | Luminosity | Snow |
|---|---|---|---|---|---|---|---|
| 1777509916 | 17.78° C | 97% | 1012.1 hPa | 0 mm | - | 2 W/m² | - |
| 1777509612 | 18.33° C | 97% | 1012.2 hPa | 0 mm | - | 4 W/m² | - |
| 1777509309 | 17.78° C | 97% | 1012.3 hPa | 0 mm | - | 3 W/m² | - |
| 1777509006 | 18.33° C | 97% | 1012.2 hPa | 0 mm | - | 3 W/m² | - |
| 1777508703 | 18.33° C | 97% | 1012.5 hPa | 0 mm | - | 4 W/m² | - |
| 1777508401 | 18.33° C | 97% | 1012.3 hPa | 0 mm | - | 9 W/m² | - |
| 1777508097 | 18.33° C | 97% | 1012.4 hPa | 0 mm | - | 10 W/m² | - |
| 1777507794 | 18.33° C | 97% | 1012.5 hPa | 0 mm | - | 9 W/m² | - |
| 1777507491 | 18.33° C | 97% | 1012.4 hPa | 0 mm | - | 12 W/m² | - |
| 1777507188 | 18.33° C | 97% | 1012.3 hPa | 0 mm | - | 14 W/m² | - |
| 1777506886 | 18.33° C | 97% | 1011.8 hPa | 0 mm | - | 31 W/m² | - |
| 1777506583 | 17.78° C | 97% | 1011.8 hPa | 0 mm | - | 57 W/m² | - |
| 1777506278 | 17.78° C | 97% | 1011.8 hPa | 0 mm | - | 50 W/m² | - |
| 1777505975 | 17.78° C | 97% | 1011.9 hPa | 0 mm | - | 48 W/m² | - |
| 1777505670 | 17.78° C | 97% | 1011.8 hPa | 0 mm | - | 57 W/m² | - |
| 1777505368 | 17.78° C | 97% | 1011.8 hPa | 0 mm | - | 53 W/m² | - |
| 1777505064 | 17.78° C | 97% | 1011.5 hPa | 0 mm | - | 52 W/m² | - |
| 1777504761 | 17.78° C | 97% | 1011.5 hPa | 0 mm | - | 75 W/m² | - |
| 1777504458 | 17.78° C | 97% | 1011.6 hPa | 0 mm | - | 82 W/m² | - |
| 1777504154 | 17.78° C | 97% | 1011.9 hPa | 0 mm | - | 49 W/m² | - |
| 1777503849 | 17.78° C | 97% | 1011.8 hPa | 0 mm | - | 39 W/m² | - |
| 1777503546 | 17.78° C | 97% | 1011.4 hPa | 0 mm | - | 50 W/m² | - |
| 1777503242 | 17.78° C | 97% | 1011.2 hPa | 0 mm | - | 86 W/m² | - |
| 1777502939 | 17.78° C | 97% | 1011.3 hPa | 0 mm | - | 123 W/m² | - |
| 1777502637 | 17.78° C | 97% | 1011.3 hPa | 0 mm | - | 73 W/m² | - |
* Rain latest hour (hover to see other rain measurements)
** Current wind speed in m/s (hover to see current wind gust speed)